OE3KJN-13 Weather Reports


Display with metric or nautical units.
time (UTC)temp
F
wind
direction
speed
MPH
gust
MPH
rain 1hr
in
rain 24hr
in
rain mn
in
humidity
%
barometer
mb
20260507183155 57 307 4.0 9.0 0.00 0.00 0.00 100
20260507182654 58 302 7.0 7.0 0.00 0.00 0.00 100
20260507182154 57 358 2.0 7.0 0.00 0.00 0.00 100
20260507181654 58 312 6.0 6.0 0.00 0.00 0.00 100
20260507181153 58 348 3.0 6.0 0.00 0.00 0.00 100
20260507180653 58 326 4.0 7.0 0.00 0.00 0.00 100
20260507180153 58 324 3.0 8.0 0.00 0.00 0.00 100
20260507175653 58 337 4.0 6.0 0.00 0.00 0.00 100
20260507175152 58 14 2.0 7.0 0.00 0.00 0.00 100
20260507174652 55 355 2.0 8.0 0.00 0.00 0.00 100
20260507174152 55 357 4.0 10.0 0.00 0.00 0.00 100
20260507173651 56 9 8.0 12.0 0.00 0.00 0.00 100
20260507173151 58 358 6.0 6.0 0.00 0.00 0.00 100
20260507172651 58 358 5.0 8.0 0.00 0.00 0.00 100
20260507172150 58 322 6.0 13.0 0.00 0.00 0.00 100
20260507171650 59 309 7.0 9.0 0.00 0.00 0.00 100
20260507171150 58 316 6.0 11.0 0.00 0.00 0.00 100
20260507170650 59 345 4.0 9.0 0.00 0.00 0.00 100
20260507170149 61 285 5.0 9.0 0.00 0.00 0.00 100
20260507165649 61 307 7.0 7.0 0.00 0.00 0.00 100
20260507165149 62 302 6.0 12.0 0.00 0.00 0.00 100
20260507164648 62 334 4.0 9.0 0.00 0.00 0.00 100
20260507164148 63 319 3.0 8.0 0.00 0.00 0.00 100
20260507163648 62 338 5.0 7.0 0.00 0.00 0.00 100
20260507163148 63 307 4.0 8.0 0.00 0.00 0.00 100
20260507162647 62 306 7.0 9.0 0.00 0.00 0.00 100
20260507162147 62 313 3.0 6.0 0.00 0.00 0.00 100
20260507161647 61 354 2.0 7.0 0.00 0.00 0.00 100
20260507161146 60 333 4.0 6.0 0.00 0.00 0.00 100
20260507160646 60 22 2.0 9.0 0.00 0.00 0.00 100
20260507160146 59 344 6.0 10.0 0.00 0.00 0.00 100
20260507155645 60 19 4.0 8.0 0.00 0.00 0.00 100
20260507155145 59 9 3.0 10.0 0.00 0.00 0.00 100
20260507154645 59 322 7.0 9.0 0.00 0.00 0.00 100
20260507154145 63 337 5.0 9.0 0.00 0.00 0.00 100
20260507153644 63 338 5.0 9.0 0.00 0.00 0.00 100
20260507153144 63 5 7.0 8.0 0.00 0.00 0.00 100
20260507152644 66 341 2.0 7.0 0.00 0.00 0.00 100
20260507152143 69 358 3.0 7.0 0.00 0.00 0.00 100
20260507151643 71 327 1.0 4.0 0.00 0.00 0.00 100
20260507151143 71 317 2.0 3.0 0.00 0.00 0.00 100
20260507150643 71 18 0.0 0.0 0.00 0.00 0.00 100
20260507150142 71 18 0.0 2.0 0.00 0.00 0.00 100
20260507145642 72 23 0.0 0.0 0.00 0.00 0.00 100
20260507145142 72 23 0.0 0.0 0.00 0.00 0.00 100
20260507144641 72 23 0.0 2.0 0.00 0.00 0.00 100
20260507144141 72 25 2.0 3.0 0.00 0.00 0.00 100
20260507143641 72 8 2.0 3.0 0.00 0.00 0.00 100
20260507143141 73 5 1.0 3.0 0.00 0.00 0.00 100
20260507142640 73 315 0.0 5.0 0.00 0.00 0.00 100
20260507142140 73 243 1.0 5.0 0.00 0.00 0.00 100
20260507141640 73 291 1.0 4.0 0.00 0.00 0.00 100
20260507141139 74 293 3.0 4.0 0.00 0.00 0.00 100
20260507140639 74 334 0.0 3.0 0.00 0.00 0.00 100
20260507140139 75 338 3.0 4.0 0.00 0.00 0.00 100
20260507135639 74 5 2.0 4.0 0.00 0.00 0.00 100
20260507135138 78 358 2.0 5.0 0.00 0.00 0.00 100
20260507134638 75 337 2.0 6.0 0.00 0.00 0.00 100
20260507134138 74 28 2.0 5.0 0.00 0.00 0.00 100
20260507133637 75 285 5.0 5.0 0.00 0.00 0.00 100
20260507133137 74 333 3.0 6.0 0.00 0.00 0.00 100
20260507132637 72 305 5.0 7.0 0.00 0.00 0.00 100
20260507132136 70 305 5.0 6.0 0.00 0.00 0.00 100
20260507131636 70 322 4.0 7.0 0.00 0.00 0.00 100
20260507131136 71 300 5.0 10.0 0.00 0.00 0.00 100
20260507130636 71 313 6.0 9.0 0.00 0.00 0.00 100
20260507130135 72 323 4.0 10.0 0.00 0.00 0.00 100
20260507125635 72 345 4.0 9.0 0.00 0.00 0.00 100
20260507125135 73 320 7.0 9.0 0.00 0.00 0.00 100
20260507124634 73 352 3.0 9.0 0.00 0.00 0.00 100
20260507124134 73 333 3.0 7.0 0.00 0.00 0.00 100
20260507123634 74 4 4.0 6.0 0.00 0.00 0.00 100
20260507123134 76 343 4.0 5.0 0.00 0.00 0.00 100
20260507122633 78 326 3.0 6.0 0.00 0.00 0.00 100
20260507122133 79 343 1.0 6.0 0.00 0.00 0.00 100
20260507121633 75 47 0.0 4.0 0.00 0.00 0.00 100
20260507121132 76 22 3.0 5.0 0.00 0.00 0.00 100
20260507120632 77 16 0.0 4.0 0.00 0.00 0.00 100
20260507120132 75 21 2.0 5.0 0.00 0.00 0.00 100
20260507115632 76 33 1.0 6.0 0.00 0.00 0.00 100
20260507115131 76 14 0.0 2.0 0.00 0.00 0.00 100
20260507114631 74 40 1.0 4.0 0.00 0.00 0.00 100
20260507114131 77 192 0.0 6.0 0.00 0.00 0.00 100
20260507113630 75 25 0.0 8.0 0.00 0.00 0.00 100
20260507113130 75 33 2.0 6.0 0.00 0.00 0.00 100
20260507112630 76 23 5.0 5.0 0.00 0.00 0.00 100
20260507112129 73 77 0.0 5.0 0.00 0.00 0.00 100
20260507111629 70 116 0.0 5.0 0.00 0.00 0.00 100
20260507111129 76 7 0.0 0.0 0.00 0.00 0.00 100
20260507110629 74 43 0.0 0.0 0.00 0.00 0.00 100
20260507110128 75 43 0.0 5.0 0.00 0.00 0.00 100
20260507105628 75 53 3.0 6.0 0.00 0.00 0.00 100
20260507105128 72 174 0.0 6.0 0.00 0.00 0.00 100
20260507104627 70 122 5.0 5.0 0.00 0.00 0.00 100
20260507104127 75 352 0.0 4.0 0.00 0.00 0.00 100
20260507103627 76 15 2.0 5.0 0.00 0.00 0.00 100
20260507103127 74 9 1.0 5.0 0.00 0.00 0.00 100
20260507102626 72 36 2.0 5.0 0.00 0.00 0.00 100
20260507102126 72 334 0.0 5.0 0.00 0.00 0.00 100
20260507101626 71 7 3.0 6.0 0.00 0.00 0.00 100
20260507101125 71 279 0.0 6.0 0.00 0.00 0.00 100
20260507100625 72 23 0.0 9.0 0.00 0.00 0.00 100
20260507100125 71 32 6.0 9.0 0.00 0.00 0.00 100
20260507095625 73 36 0.0 0.0 0.00 0.00 0.00 100
20260507095124 72 36 0.0 5.0 0.00 0.00 0.00 100
20260507094624 71 29 4.0 4.0 0.00 0.00 0.00 100
20260507094124 71 119 0.0 6.0 0.00 0.00 0.00 100
20260507093623 71 295 0.0 6.0 0.00 0.00 0.00 100
20260507093123 73 345 0.0 5.0 0.00 0.00 0.00 100
20260507092623 75 1 0.0 2.0 0.00 0.00 0.00 100
20260507092122 74 11 0.0 5.0 0.00 0.00 0.00 100
20260507091622 72 351 3.0 6.0 0.00 0.00 0.00 100
20260507091122 73 307 2.0 2.0 0.00 0.00 0.00 100
20260507090622 74 23 2.0 2.0 0.00 0.00 0.00 100
20260507090121 71 78 0.0 1.0 0.00 0.00 0.00 100
20260507085621 72 32 0.0 0.0 0.00 0.00 0.00 100
20260507085121 70 32 0.0 2.0 0.00 0.00 0.00 100
20260507084620 70 74 2.0 2.0 0.00 0.00 0.00 100
20260507084120 68 115 0.0 2.0 0.00 0.00 0.00 100
20260507083620 69 102 0.0 0.0 0.00 0.00 0.00 100
20260507083120 70 102 0.0 0.0 0.00 0.00 0.00 100
20260507082619 69 102 0.0 0.0 0.00 0.00 0.00 100
20260507082119 71 326 0.0 1.0 0.00 0.00 0.00 100
20260507081619 70 11 0.0 3.0 0.00 0.00 0.00 100
20260507081118 70 90 0.0 1.0 0.00 0.00 0.00 100
20260507080618 70 11 0.0 0.0 0.00 0.00 0.00 100
20260507080118 70 11 0.0 0.0 0.00 0.00 0.00 100
20260507075617 70 11 0.0 0.0 0.00 0.00 0.00 100
20260507075117 69 11 0.0 3.0 0.00 0.00 0.00 100
20260507074617 69 32 0.0 3.0 0.00 0.00 0.00 100
20260507074117 69 40 1.0 3.0 0.00 0.00 0.00 100
20260507073616 69 9 0.0 4.0 0.00 0.00 0.00 100
20260507073116 69 15 1.0 6.0 0.00 0.00 0.00 100
20260507072616 70 21 0.0 3.0 0.00 0.00 0.00 100
20260507072115 70 29 0.0 3.0 0.00 0.00 0.00 100
20260507071615 71 14 0.0 1.0 0.00 0.00 0.00 100
20260507071115 69 1 0.0 3.0 0.00 0.00 0.00 100
20260507070615 69 18 2.0 3.0 0.00 0.00 0.00 100
20260507070114 68 358 0.0 3.0 0.00 0.00 0.00 100
20260507065614 68 25 0.0 3.0 0.00 0.00 0.00 100
20260507065114 67 54 2.0 4.0 0.00 0.00 0.00 100
20260507064613 68 5 2.0 4.0 0.00 0.00 0.00 100
20260507064113 69 1 0.0 1.0 0.00 0.00 0.00 100
20260507063613 65 16 0.0 5.0 0.00 0.00 0.00 100
20260507063113 69 16 0.0 0.0 0.00 0.00 0.00 100
20260507062612 67 16 0.0 1.0 0.00 0.00 0.00 100
20260507062112 67 37 0.0 0.0 0.00 0.00 0.00 100
20260507061612 69 28 0.0 0.0 0.00 0.00 0.00 100
20260507061111 69 28 0.0 1.0 0.00 0.00 0.00 100
20260507060611 68 59 0.0 0.0 0.00 0.00 0.00 100
20260507060111 69 59 0.0 0.0 0.00 0.00 0.00 100
20260507055610 68 59 0.0 0.0 0.00 0.00 0.00 100
20260507055110 68 59 0.0 0.0 0.00 0.00 0.00 100
20260507054610 68 59 0.0 0.0 0.00 0.00 0.00 100
20260507054110 67 59 0.0 0.0 0.00 0.00 0.00 100
20260507053609 68 59 0.0 0.0 0.00 0.00 0.00 100
20260507053109 66 59 0.0 0.0 0.00 0.00 0.00 100
20260507052609 67 59 0.0 2.0 0.00 0.00 0.00 100
20260507052108 68 45 0.0 0.0 0.00 0.00 0.00 100
20260507051608 67 45 0.0 0.0 0.00 0.00 0.00 100
20260507051108 66 45 0.0 0.0 0.00 0.00 0.00 100
20260507050608 66 45 0.0 0.0 0.00 0.00 0.00 100
20260507050107 65 95 0.0 1.0 0.00 0.00 0.00 100
20260507045607 65 32 0.0 0.0 0.00 0.00 0.00 100
20260507045107 67 32 0.0 0.0 0.00 0.00 0.00 100
20260507044606 66 32 0.0 0.0 0.00 0.00 0.00 100
20260507044106 67 32 0.0 0.0 0.00 0.00 0.00 100
20260507043606 65 32 0.0 2.0 0.00 0.00 0.00 100
20260507043106 66 8 1.0 1.0 0.00 0.00 0.00 100
20260507042605 66 45 0.0 0.0 0.00 0.00 0.00 100
20260507042105 66 45 0.0 0.0 0.00 0.00 0.00 100
20260507041605 65 45 0.0 0.0 0.00 0.00 0.00 100
20260507041104 66 45 0.0 0.0 0.00 0.00 0.00 100
20260507040604 66 45 0.0 0.0 0.00 0.00 0.00 100
20260507040104 64 45 0.0 1.0 0.00 0.00 0.00 100
20260507035603 63 80 0.0 0.0 0.00 0.00 0.00 100
20260507035103 64 80 0.0 2.0 0.00 0.00 0.00 100
20260507034603 61 146 1.0 5.0 0.00 0.00 0.00 100
20260507034103 61 132 4.0 4.0 0.00 0.00 0.00 100
20260507033602 63 153 0.0 0.0 0.00 0.00 0.00 100
20260507033102 65 153 0.0 0.0 0.00 0.00 0.00 100
20260507032602 61 153 0.0 4.0 0.00 0.00 0.00 100
20260507032101 63 158 0.0 0.0 0.00 0.00 0.00 100
20260507031601 64 158 0.0 3.0 0.00 0.00 0.00 100
20260507031101 61 163 2.0 4.0 0.00 0.00 0.00 100
20260507030601 63 187 2.0 2.0 0.00 0.00 0.00 100
20260507030100 66 222 1.0 2.0 0.00 0.00 0.00 100
20260507025600 66 203 2.0 2.0 0.00 0.00 0.00 100
20260507025100 65 123 0.0 3.0 0.00 0.00 0.00 100
20260507024559 65 189 2.0 3.0 0.00 0.00 0.00 100
20260507024059 64 172 2.0 3.0 0.00 0.00 0.00 100
20260507023559 62 147 2.0 5.0 0.00 0.00 0.00 100
20260507023058 62 144 2.0 4.0 0.00 0.00 0.00 100
20260507022558 67 355 0.0 0.0 0.00 0.00 0.00 100
20260507022058 66 355 0.0 3.0 0.00 0.00 0.00 100
20260507021558 65 357 2.0 6.0 0.00 0.00 0.00 100
20260507021057 67 270 0.0 5.0 0.00 0.00 0.00 100
20260507020557 67 26 2.0 4.0 0.00 0.00 0.00 100
20260507020057 67 16 3.0 8.0 0.00 0.00 0.00 100
20260507015556 67 348 3.0 9.0 0.00 0.00 0.00 100
20260507015056 65 330 3.0 13.0 0.00 0.00 0.00 100
20260507014556 65 358 3.0 8.0 0.00 0.00 0.00 100
20260507014056 63 333 2.0 8.0 0.00 0.00 0.00 100
20260507013556 65 25 2.0 8.0 0.00 0.00 0.00 100
20260507013055 64 39 2.0 9.0 0.00 0.00 0.00 100
20260507012555 64 358 4.0 10.0 0.00 0.00 0.00 100
20260507012054 65 1 7.0 14.0 0.00 0.00 0.00 100
20260507011554 64 327 3.0 14.0 0.00 0.00 0.00 100
20260507011054 64 9 6.0 12.0 0.00 0.00 0.00 100
20260507010554 65 1 8.0 14.0 0.00 0.00 0.00 100
20260507010053 65 0 5.0 18.0 0.00 0.00 0.00 100
20260507005553 65 19 5.0 16.0 0.00 0.00 0.00 100
20260507005053 64 315 3.0 21.0 0.00 0.00 0.00 100
20260507004552 64 11 12.0 18.0 0.00 0.00 0.00 100
20260507004052 64 12 9.0 21.0 0.00 0.00 0.00 100
20260507003552 64 28 4.0 17.0 0.00 0.00 0.00 100
20260507003051 66 279 2.0 17.0 0.00 0.00 0.00 100
20260507002551 66 2 13.0 13.0 0.00 0.00 0.00 100
20260507002051 66 282 1.0 10.0 0.00 0.00 0.00 100
20260507001551 65 28 7.0 11.0 0.00 0.00 0.00 100
20260507001050 66 11 2.0 9.0 0.00 0.00 0.00 100
20260507000550 65 33 3.0 9.0 0.00 0.00 0.00 100
20260507000050 65 42 2.0 6.0 0.00 0.00 0.00 100
20260506235549 64 29 1.0 8.0 0.00 0.00 0.00 100
20260506235049 67 309 3.0 3.0 0.00 0.00 0.00 100
20260506234549 65 25 0.0 3.0 0.00 0.00 0.00 100
20260506234049 66 333 0.0 5.0 0.00 0.00 0.00 100
20260506233548 66 42 4.0 4.0 0.00 0.00 0.00 100
20260506233048 65 133 0.0 3.0 0.00 0.00 0.00 100
20260506232548 67 39 0.0 4.0 0.00 0.00 0.00 100
20260506232047 65 19 4.0 4.0 0.00 0.00 0.00 100
20260506231547 66 312 0.0 0.0 0.00 0.00 0.00 100
20260506231047 66 312 0.0 2.0 0.00 0.00 0.00 100
20260506230547 68 16 0.0 0.0 0.00 0.00 0.00 100
20260506230046 66 16 0.0 0.0 0.00 0.00 0.00 100
20260506225546 66 16 0.0 0.0 0.00 0.00 0.00 100
20260506225046 65 16 0.0 0.0 0.00 0.00 0.00 100
20260506224545 66 16 0.0 4.0 0.00 0.00 0.00 100
20260506224045 65 63 1.0 2.0 0.00 0.00 0.00 100
20260506223545 65 268 0.0 3.0 0.00 0.00 0.00 100
20260506223044 66 305 2.0 4.0 0.00 0.00 0.00 100
20260506222544 66 213 0.0 3.0 0.00 0.00 0.00 100
20260506222044 66 293 0.0 5.0 0.00 0.00 0.00 100
20260506221544 66 217 2.0 6.0 0.00 0.00 0.00 100
20260506221043 66 307 2.0 5.0 0.00 0.00 0.00 100
20260506220543 67 278 2.0 6.0 0.00 0.00 0.00 100
20260506220043 67 291 4.0 5.0 0.00 0.00 0.00 100
20260506215542 67 337 1.0 7.0 0.00 0.00 0.00 100
20260506215042 68 267 4.0 6.0 0.00 0.00 0.00 100
20260506214542 67 289 4.0 5.0 0.00 0.00 0.00 100
20260506214042 68 262 1.0 4.0 0.00 0.00 0.00 100
20260506213541 68 288 3.0 5.0 0.00 0.00 0.00 100
20260506213041 68 40 0.0 6.0 0.00 0.00 0.00 100
20260506212541 68 261 2.0 8.0 0.00 0.00 0.00 100
20260506212040 67 220 6.0 10.0 0.00 0.00 0.00 100
20260506211540 67 271 4.0 10.0 0.00 0.00 0.00 100
20260506211040 68 293 6.0 10.0 0.00 0.00 0.00 100
20260506210540 68 261 4.0 10.0 0.00 0.00 0.00 100
20260506210039 68 253 3.0 13.0 0.00 0.00 0.00 100
20260506205539 68 309 6.0 13.0 0.00 0.00 0.00 100
20260506205039 68 286 9.0 12.0 0.00 0.00 0.00 100
20260506204538 68 260 10.0 15.0 0.00 0.00 0.00 100
20260506204038 69 307 8.0 16.0 0.00 0.00 0.00 100
20260506203538 69 319 6.0 18.0 0.00 0.00 0.00 100
20260506203037 68 313 8.0 18.0 0.00 0.00 0.00 100
20260506202537 69 289 14.0 19.0 0.00 0.00 0.00 100
20260506202037 69 279 11.0 18.0 0.00 0.00 0.00 100
20260506201537 68 258 15.0 15.0 0.00 0.00 0.00 100
20260506201036 69 262 7.0 15.0 0.00 0.00 0.00 100
20260506200536 68 303 5.0 13.0 0.00 0.00 0.00 100
20260506200036 68 271 7.0 15.0 0.00 0.00 0.00 100
20260506195535 68 284 7.0 12.0 0.00 0.00 0.00 100
20260506195035 69 295 8.0 13.0 0.00 0.00 0.00 100
20260506194535 68 285 6.0 10.0 0.00 0.00 0.00 100
20260506194035 68 296 7.0 10.0 0.00 0.00 0.00 100
20260506193534 68 250 5.0 12.0 0.00 0.00 0.00 100
20260506193034 70 261 5.0 13.0 0.00 0.00 0.00 100
20260506192534 69 244 4.0 11.0 0.00 0.00 0.00 100
20260506192033 68 326 4.0 16.0 0.00 0.00 0.00 100
20260506191533 69 258 9.0 16.0 0.00 0.00 0.00 100
20260506191033 69 237 7.0 15.0 0.00 0.00 0.00 100
20260506190533 69 248 8.0 15.0 0.00 0.00 0.00 100
20260506190032 70 260 4.0 15.0 0.00 0.00 0.00 100
20260506185532 69 261 8.0 12.0 0.00 0.00 0.00 100
20260506185032 69 254 9.0 12.0 0.00 0.00 0.00 100
20260506184531 70 219 8.0 12.0 0.00 0.00 0.00 100
20260506184031 70 243 4.0 17.0 0.00 0.00 0.00 100
20260506183531 70 248 9.0 14.0 0.00 0.00 0.00 100